| time (UTC) | temp C | wind direction | speed KPH | gust KPH | rain 1hr cm | rain 24hr cm | rain mn cm | humidity % | barometer mb |
| 20260906114851 | 23 | 0 | 0.0 | 0.0 | 0.00 | 0.00 | 0.00 | 89 | 1013.4 |
| 20260906113045 | 24 | 0 | 0.0 | 0.0 | 0.00 | 0.00 | 0.00 | 88 | 1013.6 |
| 20260906111545 | 24 | 0 | 0.0 | 0.0 | 0.00 | 0.00 | 0.00 | 87 | 1013.5 |
| 20260906110048 | 25 | 0 | 0.0 | 0.0 | 0.00 | 0.00 | 0.00 | 86 | 1013.4 |
| 20260906103104 | 25 | 0 | 0.0 | 11.3 | 0.00 | 0.00 | 0.00 | 83 | 1013.5 |
| 20260906101558 | 25 | 0 | 0.0 | 8.0 | 0.00 | 0.00 | 0.00 | 83 | 1013.6 |
| 20260906100041 | 25 | 0 | 0.0 | 0.0 | 0.00 | 0.00 | 0.00 | 88 | 1013.4 |
| 20260906094541 | 25 | 0 | 0.0 | 0.0 | 0.00 | 0.00 | 0.00 | 90 | 1012.8 |
| 20260906093053 | 25 | 0 | 0.0 | 0.0 | 0.00 | 0.00 | 0.00 | 91 | 1012.9 |
| 20260906091541 | 25 | 0 | 0.0 | 0.0 | 0.00 | 0.00 | 0.00 | 91 | 1012.7 |
| 20260906090049 | 25 | 0 | 0.0 | 0.0 | 0.00 | 0.00 | 0.00 | 91 | 1012.7 |
| 20260906084552 | 25 | 0 | 0.0 | 0.0 | 0.00 | 0.00 | 0.00 | 91 | 1012.7 |
| 20260906083042 | 25 | 0 | 0.0 | 0.0 | 0.00 | 0.00 | 0.00 | 91 | 1013.0 |
| 20260906081540 | 25 | 0 | 0.0 | 1.6 | 0.00 | 0.00 | 0.00 | 92 | 1013.2 |
| 20260906080051 | 25 | 0 | 0.0 | 0.0 | 0.00 | 0.00 | 0.00 | 92 | 1013.3 |
| 20260906074548 | 25 | 0 | 0.0 | 0.0 | 0.00 | 0.00 | 0.00 | 91 | 1012.9 |
| 20260906073040 | 25 | 0 | 0.0 | 0.0 | 0.00 | 0.00 | 0.00 | 91 | 1012.8 |
| 20260906071540 | 25 | 0 | 0.0 | 0.0 | 0.00 | 0.00 | 0.00 | 90 | 1012.8 |
| 20260906070045 | 25 | 0 | 0.0 | 0.0 | 0.00 | 0.00 | 0.00 | 90 | 1012.9 |
| 20260906064539 | 25 | 0 | 0.0 | 0.0 | 0.00 | 0.00 | 0.00 | 89 | 1013.1 |
| 20260906063049 | 25 | 0 | 0.0 | 0.0 | 0.00 | 0.00 | 0.00 | 89 | 1013.3 |
| 20260906061547 | 25 | 0 | 0.0 | 0.0 | 0.00 | 0.00 | 0.00 | 89 | 1013.6 |
| 20260906060056 | 25 | 0 | 0.0 | 0.0 | 0.00 | 0.00 | 0.00 | 89 | 1013.6 |
| 20260906054541 | 25 | 0 | 0.0 | 0.0 | 0.00 | 0.00 | 0.00 | 88 | 1013.6 |
| 20260906053045 | 25 | 0 | 0.0 | 0.0 | 0.00 | 0.00 | 0.00 | 88 | 1013.7 |
| 20260906051755 | 25 | 0 | 0.0 | 0.0 | 0.00 | 0.00 | 0.00 | 88 | 1013.7 |
| 20260906050432 | 25 | 0 | 0.0 | 0.0 | 0.00 | 0.00 | 0.00 | 88 | 1013.9 |
| 20260906044541 | 25 | 0 | 0.0 | 0.0 | 0.00 | 0.00 | 0.00 | 88 | 1013.5 |
| 20260906043047 | 26 | 0 | 0.0 | 0.0 | 0.00 | 0.00 | 0.00 | 87 | 1013.5 |
| 20260906041548 | 26 | 0 | 0.0 | 0.0 | 0.00 | 0.00 | 0.00 | 86 | 1013.6 |
| 20260906040047 | 26 | 0 | 0.0 | 0.0 | 0.00 | 0.00 | 0.00 | 86 | 1013.6 |
| 20260906034546 | 26 | 0 | 0.0 | 0.0 | 0.00 | 0.00 | 0.00 | 85 | 1013.6 |
| 20260906033045 | 26 | 0 | 0.0 | 0.0 | 0.00 | 0.00 | 0.00 | 85 | 1013.7 |
| 20260906031544 | 26 | 0 | 0.0 | 0.0 | 0.00 | 0.00 | 0.00 | 84 | 1013.5 |
| 20260906030040 | 27 | 0 | 0.0 | 0.0 | 0.00 | 0.00 | 0.00 | 83 | 1013.6 |
| 20260906024544 | 27 | 0 | 0.0 | 0.0 | 0.00 | 0.00 | 0.00 | 83 | 1013.5 |
| 20260906023048 | 27 | 0 | 0.0 | 0.0 | 0.00 | 0.00 | 0.00 | 83 | 1013.5 |
| 20260906021553 | 27 | 0 | 0.0 | 0.0 | 0.00 | 0.00 | 0.00 | 83 | 1013.4 |
| 20260906020042 | 27 | 0 | 0.0 | 0.0 | 0.00 | 0.00 | 0.00 | 82 | 1013.4 |
| 20260906014548 | 27 | 0 | 0.0 | 0.0 | 0.00 | 0.00 | 0.00 | 81 | 1013.0 |
| 20260906013040 | 27 | 0 | 0.0 | 0.0 | 0.00 | 0.00 | 0.00 | 81 | 1012.8 |
| 20260906011602 | 28 | 0 | 0.0 | 0.0 | 0.00 | 0.00 | 0.00 | 80 | 1012.4 |
| 20260906010046 | 28 | 0 | 0.0 | 1.6 | 0.00 | 0.00 | 0.00 | 80 | 1012.2 |
| 20260906004545 | 28 | 0 | 0.0 | 0.0 | 0.00 | 0.00 | 0.00 | 79 | 1012.3 |
| 20260906003041 | 28 | 0 | 0.0 | 1.6 | 0.00 | 0.00 | 0.00 | 78 | 1012.1 |
| 20260906001551 | 29 | 270 | 0.0 | 1.6 | 0.00 | 0.00 | 0.00 | 77 | 1012.3 |
| 20260905234541 | 30 | 0 | 0.0 | 3.2 | 0.00 | 0.00 | 0.00 | 75 | 1012.4 |
| 20260905233104 | 30 | 0 | 0.0 | 3.2 | 0.00 | 0.00 | 0.00 | 75 | 1012.3 |
| 20260905231553 | 31 | 0 | 0.0 | 1.6 | 0.00 | 0.00 | 0.00 | 74 | 1012.3 |
| 20260905230047 | 31 | 0 | 0.0 | 4.8 | 0.00 | 0.00 | 0.00 | 73 | 1012.4 |
| 20260905224605 | 32 | 275 | 0.0 | 6.4 | 0.00 | 0.00 | 0.00 | 71 | 1012.2 |
| 20260905223044 | 32 | 0 | 0.0 | 3.2 | 0.00 | 0.00 | 0.00 | 68 | 1012.0 |
| 20260905220050 | 33 | 309 | 1.6 | 8.0 | 0.00 | 0.00 | 0.00 | 65 | 1011.8 |
| 20260905214549 | 34 | 304 | 0.0 | 4.8 | 0.00 | 0.00 | 0.00 | 63 | 1011.7 |
| 20260905213048 | 35 | 309 | 1.6 | 8.0 | 0.00 | 0.00 | 0.00 | 62 | 1011.7 |
| 20260905211547 | 35 | 219 | 1.6 | 6.4 | 0.00 | 0.00 | 0.00 | 58 | 1011.9 |
| 20260905210042 | 35 | 0 | 0.0 | 4.8 | 0.00 | 0.00 | 0.00 | 57 | 1011.8 |
| 20260905204539 | 35 | 0 | 0.0 | 4.8 | 0.00 | 0.00 | 0.00 | 57 | 1012.0 |
| 20260905203047 | 35 | 0 | 1.6 | 8.0 | 0.00 | 0.00 | 0.00 | 57 | 1012.1 |
| 20260905201546 | 36 | 0 | 1.6 | 8.0 | 0.00 | 0.00 | 0.00 | 57 | 1012.2 |
| 20260905200049 | 36 | 67 | 0.0 | 6.4 | 0.00 | 0.00 | 0.00 | 57 | 1012.3 |
| 20260905194541 | 36 | 243 | 1.6 | 8.0 | 0.00 | 0.00 | 0.00 | 58 | 1012.6 |
| 20260905193046 | 36 | 238 | 0.0 | 8.0 | 0.00 | 0.00 | 0.00 | 56 | 1012.6 |
| 20260905191549 | 37 | 240 | 1.6 | 6.4 | 0.00 | 0.00 | 0.00 | 55 | 1013.0 |
| 20260905190100 | 37 | 141 | 1.6 | 6.4 | 0.00 | 0.00 | 0.00 | 47 | 1013.2 |
| 20260905184558 | 38 | 239 | 3.2 | 8.0 | 0.00 | 0.00 | 0.00 | 45 | 1013.3 |
| 20260905183047 | 37 | 112 | 1.6 | 6.4 | 0.00 | 0.00 | 0.00 | 46 | 1013.6 |
| 20260905181542 | 37 | 79 | 1.6 | 6.4 | 0.00 | 0.00 | 0.00 | 48 | 1013.8 |
| 20260905180055 | 36 | 108 | 0.0 | 9.7 | 0.00 | 0.00 | 0.00 | 48 | 1013.9 |
| 20260905174555 | 36 | 117 | 3.2 | 8.0 | 0.00 | 0.00 | 0.00 | 50 | 1014.4 |
| 20260905173114 | 36 | 116 | 1.6 | 6.4 | 0.00 | 0.00 | 0.00 | 51 | 1014.5 |
| 20260905171540 | 36 | 108 | 1.6 | 6.4 | 0.00 | 0.00 | 0.00 | 48 | 1014.8 |
| 20260905170045 | 36 | 91 | 0.0 | 4.8 | 0.00 | 0.00 | 0.00 | 52 | 1014.8 |
| 20260905164549 | 36 | 0 | 1.6 | 8.0 | 0.00 | 0.00 | 0.00 | 50 | 1015.1 |
| 20260905163050 | 37 | 120 | 1.6 | 6.4 | 0.00 | 0.00 | 0.00 | 50 | 1015.0 |
| 20260905161552 | 36 | 91 | 0.0 | 6.4 | 0.00 | 0.00 | 0.00 | 54 | 1015.2 |
| 20260905160047 | 35 | 148 | 3.2 | 8.0 | 0.00 | 0.00 | 0.00 | 54 | 1015.3 |
| 20260905154553 | 35 | 98 | 1.6 | 6.4 | 0.00 | 0.00 | 0.00 | 55 | 1015.3 |
| 20260905153046 | 35 | 142 | 3.2 | 6.4 | 0.00 | 0.00 | 0.00 | 58 | 1015.2 |
| 20260905151544 | 33 | 95 | 0.0 | 6.4 | 0.00 | 0.00 | 0.00 | 65 | 1015.0 |
| 20260905150043 | 33 | 128 | 1.6 | 6.4 | 0.00 | 0.00 | 0.00 | 65 | 1015.1 |
| 20260905144549 | 31 | 124 | 1.6 | 4.8 | 0.00 | 0.00 | 0.00 | 71 | 1015.3 |
| 20260905143046 | 31 | 96 | 1.6 | 4.8 | 0.00 | 0.00 | 0.00 | 72 | 1015.3 |
| 20260905141546 | 30 | 319 | 1.6 | 6.4 | 0.00 | 0.00 | 0.00 | 74 | 1015.4 |
| 20260905140050 | 29 | 123 | 1.6 | 6.4 | 0.00 | 0.00 | 0.00 | 77 | 1015.3 |
| 20260905134545 | 28 | 139 | 0.0 | 4.8 | 0.00 | 0.00 | 0.00 | 79 | 1015.5 |
| 20260905133042 | 27 | 128 | 0.0 | 4.8 | 0.00 | 0.00 | 0.00 | 82 | 1015.4 |
| 20260905131559 | 26 | 0 | 0.0 | 1.6 | 0.00 | 0.00 | 0.00 | 85 | 1015.3 |
| 20260905130045 | 26 | 129 | 0.0 | 1.6 | 0.00 | 0.00 | 0.00 | 87 | 1015.5 |
| 20260905124549 | 25 | 122 | 0.0 | 1.6 | 0.00 | 0.00 | 0.00 | 89 | 1015.6 |
| 20260905123053 | 24 | 158 | 0.0 | 0.0 | 0.00 | 0.00 | 0.00 | 91 | 1015.4 |
| 20260905121550 | 23 | 0 | 0.0 | 0.0 | 0.00 | 0.00 | 0.00 | 92 | 1015.6 |
| 20260905120050 | 23 | 0 | 0.0 | 1.6 | 0.00 | 0.00 | 0.00 | 93 | 1015.3 |